Flag for Poland Weather past 2 weeks in Bytom, Poland

Now
36 °F

Snow flurries. Partly cloudy.


Feels Like: 25 °F
Forecast: 32 / 39 °F
Wind: 18 mph from West

Location: Katowice Airport

Current Time: Apr 2, 2015 at 12:36:54 AM

Latest Report: Apr 2, 2015 at 12:00 AM


Visibility: N/A

Pressure: 29.77 "Hg

Humidity: 70%

Dew point: 27 °F

Location of BytomLocation

Historic Weather in Bytom — Graph

°F

Bytom temperature yesterday

Maximum temperature yesterday: 43 °F (at 12:00 AM)
Minimum temperature yesterday: 37 °F (at 10:30 AM)
Average temperature yesterday: 40 °F

Past Weeks' High & Low Weather Summary

 TemperatureHumidityPressure
High66 °F (Mar 25, 2:00 PM)100% (Mar 20, 2:30 AM)30.51 "Hg (Mar 20, 2:30 AM)
Low19 °F (Mar 23, 5:00 AM)25% (Mar 23, 1:30 PM)29.24 "Hg (Mar 30, 5:00 AM)
Average42 °F69%29.91 "Hg
* Reported Mar 17 10:00 PM — Apr 1 11:00 PM, Bytom, Weather by CustomWeather, © 2015

Note: Actual official high and low records may vary slightly from our data, if they occured in-between our weather recording intervals... More about our weather records

Advertising

Bytom weather history for previous 24 hours

 ConditionsComfort  
Time TempWeatherWind HumidityBarometerVisibility
11:00 PM
Wed, Apr 1
37 °FPassing clouds.21 mph65%29.74 "HgN/A
10:30 PM37 °FPassing clouds.22 mph60%29.74 "HgN/A
10:00 PM37 °FPassing clouds.21 mph65%29.74 "HgN/A
9:30 PM37 °FPassing clouds.17 mph65%29.74 "HgN/A
9:00 PM37 °FPassing clouds.20 mph70%29.74 "HgN/A
8:30 PM37 °FPartly cloudy.21 mph70%29.71 "HgN/A
8:00 PM37 °FSprinkles. Broken clouds.24 mph70%29.71 "HgN/A
7:30 PM37 °FBroken clouds.24 mph70%29.68 "HgN/A
7:00 PM41 °FScattered clouds.20 mph61%29.65 "HgN/A
6:30 PM41 °FScattered clouds.24 mph57%29.65 "HgN/A
6:00 PM41 °FPassing clouds.22 mph61%29.65 "HgN/A
5:30 PM41 °FScattered clouds.26 mph61%29.65 "HgN/A
5:00 PM43 °FBroken clouds.28 mph49%29.65 "HgN/A
4:30 PM41 °FSprinkles. Broken clouds.24 mph66%29.62 "HgN/A
4:00 PM43 °FPassing clouds.28 mph57%29.62 "HgN/A
3:30 PM43 °FScattered clouds.26 mph57%29.62 "HgN/A
3:00 PM43 °FScattered clouds.30 mph57%29.62 "HgN/A
2:30 PM39 °FSnow flurries. Scattered clouds.32 mph70%29.62 "HgN/A
2:00 PM41 °FPartly sunny.29 mph66%29.62 "HgN/A
1:30 PM41 °FPartly sunny.24 mph61%29.62 "HgN/A
1:00 PM39 °FSprinkles. Broken clouds.28 mph70%29.62 "HgN/A
12:30 PM39 °FSprinkles. Broken clouds.26 mph75%29.59 "HgN/A
12:00 PM39 °FBroken clouds.30 mph75%29.59 "HgN/A
11:30 AM37 °FSnow flurries. Broken clouds.24 mph81%29.56 "Hg5 mi
11:00 AM37 °FSnow flurries. Broken clouds.26 mph81%29.56 "Hg5 mi
10:30 AM37 °FSnow flurries. Broken clouds.32 mph75%29.53 "HgN/A
10:00 AM39 °FSnow flurries. Partly sunny.29 mph65%29.53 "HgN/A
9:30 AM39 °FSnow flurries. Partly sunny.31 mph61%29.53 "HgN/A
9:00 AM39 °FPartly sunny.32 mph65%29.50 "HgN/A
8:30 AM39 °FPartly sunny.30 mph61%29.50 "HgN/A
8:00 AM39 °FScattered clouds.28 mph61%29.47 "HgN/A
7:30 AM39 °FSnow flurries. Partly sunny.23 mph61%29.47 "HgN/A
7:00 AM39 °FPassing clouds.25 mph61%29.47 "HgN/A
6:30 AM39 °FPassing clouds.22 mph61%29.47 "HgN/A
6:00 AM39 °FPassing clouds.22 mph65%29.45 "HgN/A
5:30 AM39 °FPassing clouds.29 mph56%29.45 "HgN/A
5:00 AM39 °FPassing clouds.29 mph61%29.45 "HgN/A
4:30 AM39 °FPassing clouds.33 mph100%29.45 "HgN/A
4:00 AM41 °FPassing clouds.28 mph61%29.45 "HgN/A
3:30 AM41 °FPassing clouds.24 mph57%29.42 "HgN/A
3:00 AM41 °FClear.16 mph57%29.42 "Hg10 mi
2:30 AM41 °FClear.20 mph57%29.42 "Hg10 mi
2:00 AM41 °FClear.20 mph53%29.42 "Hg10 mi
1:30 AM41 °FPassing clouds.29 mph53%29.42 "HgN/A
1:00 AM43 °FPassing clouds.35 mph53%29.42 "HgN/A
12:30 AM43 °FPassing clouds.29 mph57%29.42 "HgN/A
12:00 AM43 °FPassing clouds.25 mph57%29.42 "HgN/A
Weather by CustomWeather, © 2015

See weather overviewHow to use our weather pages